Wind_Speed
29 29 29 29 29 29 29 28 27 27 27 26 26 25 25 26 26 26 27 27 28 28 29 29 30 30 30 30 30 30 30 30 30 31 31 30 30 30 30 30 30 31 31 31 31 32 33 33 33 33 33 34 34 34 35 35 35 36 35 34 34 32 31 31 33 43 50 45 40 42 39 35 36 35 32 31 30 29 30 31 32 34 36 37 39
30 30 30 29 29 29 28 28 28 27 27 27 26 25 25 25 25 26 26 27 28 29 30 30 31 31 31 31 31 31 31 31 31 31 31 31 31 31 30 30 31 31 31 32 32 32 33 33 34 33 33 33 33 33 34 34 34 35 35 34 35 35 33 34 34 39 47 49 44 43 41 37 37 39 37 36 36 36 34 34 34 34 35 36 37
30 30 30 29 29 28 28 27 27 27 27 26 26 26 25 25 26 27 27 28 29 29 30 31 31 32 32 32 33 33 33 33 33 33 32 32 32 32 31 31 31 32 32 32 32 31 32 33 33 33 33 33 33 33 32 32 32 32 33 32 32 34 33 32 34 37 44 49 48 45 43 40 39 39 39 37 38 38 38 38 38 38 38 38 38
29 29 29 28 27 27 27 26 26 26 26 26 26 26 26 26 26 27 28 29 30 31 31 32 32 33 33 33 33 34 34 34 34 34 34 33 33 33 32 31 31 32 32 32 32 32 31 32 32 31 31 32 32 31 30 30 29 29 30 30 30 31 31 30 32 34 37 44 49 46 42 40 40 39 40 40 39 39 40 39 39 40 40 40 41
28 27 27 27 26 26 26 26 26 26 26 26 26 26 26 27 27 27 29 30 31 32 33 33 34 35 35 35 35 35 34 34 34 34 34 33 33 33 33 33 32 32 32 32 32 31 31 31 31 30 29 30 29 28 27 27 27 27 28 28 28 28 28 28 28 29 31 37 44 46 42 39 38 38 39 41 41 41 41 41 41 41 41 41 42
26 26 26 26 25 25 25 26 26 26 26 26 26 27 27 28 28 28 29 31 31 32 33 34 36 36 37 38 38 38 37 36 35 34 34 33 33 33 33 33 33 33 32 32 31 31 30 31 30 29 26 26 26 25 25 26 27 26 26 25 24 22 23 24 23 24 26 31 36 40 40 38 36 36 37 37 38 39 39 39 38 37 38 39 40
25 25 25 25 25 25 25 25 25 26 27 27 27 28 28 29 30 30 31 32 33 33 34 35 36 36 37 38 39 39 39 39 38 37 35 34 33 33 32 32 32 32 32 32 31 30 30 29 29 26 23 22 23 24 25 26 26 26 25 24 23 22 22 22 20 19 20 24 28 33 36 36 34 33 31 30 32 32 31 31 32 32 31 32 34
26 26 25 26 26 26 26 26 26 27 27 28 28 29 30 30 31 31 32 33 34 35 36 36 36 36 37 38 38 39 40 40 39 38 37 36 34 33 32 31 30 30 30 30 30 29 29 28 27 24 22 22 23 23 24 25 25 26 25 24 24 25 24 24 23 21 19 21 24 26 29 30 30 28 26 25 27 29 27 27 31 33 31 31 32
26 26 26 26 27 27 27 27 28 28 29 29 30 30 31 32 32 33 33 34 35 36 36 36 37 37 37 37 37 38 38 39 39 38 37 35 33 31 30 29 29 29 29 28 27 26 25 24 24 23 22 23 23 24 24 24 25 27 28 28 28 28 28 27 26 25 24 24 25 25 26 26 25 24 23 22 24 26 27 28 29 30 30 31 33
26 26 27 27 27 27 28 28 28 29 30 31 31 32 32 33 34 34 35 35 35 36 36 36 36 37 37 37 37 37 37 37 37 35 33 31 29 28 28 28 27 27 26 25 24 24 23 23 23 23 24 25 25 27 28 29 30 32 33 33 33 33 33 33 31 30 29 29 29 27 27 27 26 24 23 22 20 21 24 24 24 25 27 30 32
26 26 27 28 27 28 28 29 29 30 30 31 32 33 34 35 35 36 36 36 36 37 37 37 37 37 37 37 37 37 37 36 35 33 31 29 28 27 27 27 27 27 26 26 27 27 28 28 29 29 30 31 32 33 35 36 37 36 36 34 32 31 32 34 35 34 34 35 34 31 29 29 28 26 26 24 22 22 23 24 26 27 28 30 33
27 27 27 27 28 28 29 30 30 31 32 33 34 34 35 36 36 37 37 37 37 37 37 37 37 37 37 37 37 37 36 35 33 32 30 28 27 27 26 27 28 28 27 28 30 32 33 34 34 34 34 34 35 35 36 36 36 35 34 33 31 29 28 30 32 34 36 37 37 35 33 31 31 30 29 28 27 27 27 29 30 30 30 30 31
27 27 26 28 29 29 30 31 32 33 33 34 35 36 36 37 37 37 37 37 38 37 37 37 37 36 36 36 36 36 36 34 32 30 28 26 26 26 27 28 29 29 30 31 32 33 33 33 33 32 31 30 30 30 30 31 31 31 32 32 32 30 27 27 28 30 33 35 37 38 37 36 36 35 34 32 31 30 31 31 31 30 30 29 29
27 27 27 28 29 30 31 32 33 34 35 35 36 36 37 37 37 37 38 37 37 37 37 37 36 36 35 36 36 36 35 34 32 29 27 26 25 26 27 29 30 31 31 30 29 29 28 28 29 30 29 27 26 25 25 26 27 28 29 30 29 28 25 24 24 25 28 30 32 33 35 36 36 37 36 33 30 29 29 29 28 27 28 28 28
28 28 28 29 30 31 33 34 35 35 36 36 37 37 37 38 38 37 37 37 36 36 36 35 35 35 35 35 36 36 35 34 32 29 28 26 26 26 28 29 31 31 31 29 27 26 26 26 28 29 29 27 25 24 24 25 26 27 27 26 25 23 21 20 20 20 22 26 28 29 30 30 29 30 31 28 25 24 22 23 24 24 25 26 27
28 29 29 30 31 33 34 35 36 36 37 37 37 37 37 37 37 36 36 35 35 35 35 34 35 35 35 35 36 36 36 34 32 31 29 27 27 28 29 30 31 32 33 32 30 28 27 27 27 27 27 26 26 24 24 25 26 26 25 24 23 22 21 20 19 17 18 20 22 21 20 19 20 20 18 16 17 20 20 21 22 21 23 25 27
28 29 29 31 32 33 34 35 36 36 36 36 36 36 36 36 35 35 35 35 34 34 35 35 34 35 35 35 35 35 35 34 32 32 30 27 26 28 29 30 32 32 33 33 32 30 30 28 26 25 25 25 24 23 23 24 24 24 25 26 26 25 24 23 22 20 19 18 17 16 15 16 19 20 16 13 15 18 19 21 22 22 25 28 30
28 29 30 31 32 32 33 34 34 34 35 35 35 35 34 34 34 33 33 33 34 33 33 34 33 32 32 32 31 31 32 31 30 30 28 25 24 26 28 30 31 32 32 32 31 30 30 29 25 23 24 23 22 21 21 21 22 23 25 26 26 24 23 22 22 20 20 21 21 21 20 20 21 21 21 19 19 19 21 22 23 25 29 31 32
29 30 30 30 31 31 31 32 32 33 33 33 33 33 32 32 32 31 31 31 32 32 31 32 32 30 29 28 28 28 29 30 29 28 27 24 22 24 27 29 30 30 29 29 29 28 28 28 25 22 22 21 21 21 20 20 21 22 21 19 19 18 17 17 17 16 16 19 22 23 24 24 23 22 23 22 22 23 24 25 26 28 30 31 32
29 29 29 29 30 30 30 31 31 31 31 31 31 31 30 30 30 30 30 30 30 31 30 30 30 29 28 27 27 27 28 29 29 27 27 25 22 22 25 27 27 27 26 25 25 26 27 27 26 23 21 19 19 20 18 18 18 15 11 11 12 13 13 13 13 13 13 16 18 20 22 23 24 24 25 26 26 26 26 27 28 29 31 33 34
28 28 28 29 29 29 29 29 29 29 29 29 29 29 28 29 29 29 29 29 29 29 29 29 29 29 28 27 27 27 27 28 29 28 27 26 22 20 24 25 24 24 23 22 22 24 26 27 26 24 22 19 18 18 16 16 17 15 9 7 8 10 12 13 13 13 14 15 16 19 21 22 23 24 26 27 27 27 28 29 31 32 33 35 37
27 27 28 28 28 28 28 28 27 27 27 27 28 28 27 27 27 27 28 28 28 29 28 28 28 28 28 27 26 26 26 26 27 27 26 26 22 19 21 24 23 22 22 23 23 25 26 26 26 25 23 21 19 17 17 20 22 20 14 11 11 13 14 16 17 18 19 20 21 22 23 24 26 27 28 29 30 31 32 33 34 34 35 36 36
26 26 27 27 27 27 26 26 25 25 25 25 26 26 26 26 26 26 27 28 28 28 28 28 28 28 28 27 26 25 25 25 26 26 26 26 24 20 20 23 23 22 23 24 24 25 25 26 26 24 23 22 20 18 19 23 23 21 19 18 19 21 22 23 24 24 24 25 27 28 28 29 30 31 32 33 34 34 35 35 35 35 35 36 35
25 25 26 26 26 25 25 24 24 24 24 24 25 25 25 26 26 25 26 27 28 28 28 28 28 28 28 28 27 26 26 27 27 27 27 27 26 22 21 22 22 21 22 22 23 24 25 25 24 22 22 22 21 20 22 25 24 23 23 23 24 26 27 27 27 27 28 29 30 31 31 31 33 34 34 34 35 35 35 35 35 34 34 34 33
24 25 25 24 24 24 24 23 23 23 23 23 24 25 25 26 26 26 26 26 27 27 27 27 27 28 28 28 28 28 29 30 30 29 28 27 24 22 21 21 22 22 23 24 25 26 26 25 22 20 19 20 20 20 22 25 26 26 25 25 27 28 28 29 29 29 30 31 31 32 32 33 33 33 33 33 34 34 34 34 34 33 32 33 33
24 24 24 23 23 23 23 22 22 22 22 23 23 24 24 25 26 25 25 25 25 26 26 27 27 27 28 28 29 30 31 32 32 31 29 26 23 22 23 24 25 25 26 27 26 26 25 22 20 18 17 17 18 18 19 21 23 24 25 25 27 28 28 28 28 29 30 31 31 32 33 33 33 33 32 33 33 33 33 34 34 33 32 32 32
23 23 23 22 22 22 22 23 23 23 23 23 23 23 23 24 25 25 24 25 25 26 26 26 27 28 28 29 31 32 33 33 33 31 29 26 25 25 26 27 28 28 27 27 27 27 26 23 19 16 15 15 16 16 17 17 19 21 22 23 24 25 25 26 27 28 29 30 31 32 32 33 33 32 32 32 33 32 31 32 33 32 31 30 32
22 22 22 21 21 22 22 23 23 24 24 24 23 24 24 24 24 23 23 23 25 26 26 26 26 27 28 30 32 33 33 33 32 30 28 27 27 27 27 28 28 28 27 26 27 27 27 23 17 13 13 14 14 14 15 16 18 19 20 21 22 23 24 25 26 27 29 30 32 33 33 32 32 31 31 31 31 30 29 29 30 30 29 28 30
21 21 21 20 21 21 22 22 23 24 24 23 22 22 22 23 23 22 21 20 21 23 23 24 25 25 27 28 30 32 32 32 30 28 27 26 26 26 26 27 27 26 25 24 24 24 24 20 14 12 13 13 13 13 14 16 17 19 20 21 22 24 25 27 28 29 30 31 32 33 32 31 30 29 29 30 29 28 27 26 27 27 27 27 29
20 20 20 20 20 21 22 22 22 23 23 23 23 21 20 19 20 21 21 19 19 19 20 21 22 23 25 26 26 27 29 30 29 27 27 26 25 25 25 25 25 24 24 23 22 21 20 17 12 10 12 14 14 15 17 18 20 21 22 23 24 26 27 29 30 31 32 32 32 31 30 29 29 28 27 28 28 26 25 25 25 25 25 26 27
19 19 19 19 20 21 21 21 22 22 22 23 24 24 23 20 18 19 19 19 19 18 17 18 19 20 22 24 25 25 26 27 27 27 27 25 25 25 24 24 24 24 24 23 22 20 18 17 15 13 14 15 17 19 20 21 22 24 25 26 27 27 28 29 30 30 31 30 29 28 27 26 26 26 26 27 27 26 25 24 23 23 23 24 25
18 18 18 18 19 19 20 20 21 21 22 22 23 25 26 25 22 20 19 18 18 17 17 17 18 19 20 22 24 25 26 26 26 26 25 25 24 24 24 25 25 25 23 22 21 19 19 19 19 18 18 19 20 21 22 23 24 25 26 27 28 28 28 29 29 29 29 28 27 26 25 25 25 25 25 25 26 25 25 23 23 22 22 23 24
17 17 17 17 17 18 18 19 20 21 22 23 23 24 25 27 27 26 23 21 18 16 15 16 18 19 20 21 22 24 24 24 24 24 24 23 23 24 25 26 25 23 22 21 20 20 20 20 21 21 21 22 22 23 23 24 25 26 27 28 29 30 29 29 29 28 27 26 25 25 24 23 23 24 24 24 24 24 24 23 22 21 22 22 22
15 15 16 16 17 17 18 18 19 20 21 22 23 24 24 25 27 28 28 27 24 20 17 16 17 19 20 21 21 22 23 23 22 22 22 22 22 24 25 25 23 21 20 20 20 20 21 22 22 23 23 24 24 25 26 26 27 28 29 29 30 30 29 28 27 26 25 24 23 23 22 22 22 23 23 23 22 22 22 21 21 21 21 22 22
14 14 14 15 15 16 17 18 19 20 21 22 23 24 24 25 25 26 27 28 28 26 24 21 20 20 21 21 22 22 22 21 21 21 21 21 22 23 24 25 24 22 20 19 19 20 21 22 22 23 24 25 26 27 28 28 28 28 28 28 28 28 27 25 24 23 22 22 22 21 21 21 21 21 22 22 22 21 21 20 20 20 21 21 21
13 13 13 14 15 16 17 18 19 20 21 22 23 23 23 23 24 24 24 25 25 26 26 25 23 21 20 20 21 21 21 20 20 19 19 19 20 22 24 24 25 24 23 21 21 21 21 21 22 23 23 24 25 25 26 26 26 25 26 26 26 26 25 23 22 21 21 20 20 19 19 19 19 20 21 21 21 21 21 20 20 20 20 20 21
13 14 14 14 15 16 17 18 19 20 20 21 22 22 22 22 22 23 23 23 24 24 25 25 25 24 23 22 22 22 21 20 19 18 18 19 19 20 22 23 24 24 23 22 21 21 21 21 21 21 22 22 22 22 23 23 23 23 23 23 23 23 23 22 21 20 20 19 19 18 18 19 19 19 21 21 21 20 20 20 21 21 20 20 20
14 15 15 16 16 17 18 18 18 19 20 20 21 21 22 22 22 22 22 23 23 24 25 25 26 27 27 26 26 25 23 22 21 20 19 19 20 20 21 21 22 23 23 22 21 22 22 21 20 20 20 20 20 20 20 21 21 21 21 22 21 21 20 20 19 19 19 19 18 18 19 19 19 19 20 21 21 20 20 20 21 21 21 20 20
13 14 15 16 16 17 18 18 19 19 20 20 21 22 22 22 22 22 22 23 24 24 25 26 25 26 27 28 28 28 27 26 26 25 24 23 22 22 22 22 22 22 23 22 22 22 22 21 20 20 19 19 19 19 19 20 20 20 20 21 21 19 19 18 18 17 18 18 18 18 18 18 18 18 19 20 20 20 20 20 20 21 22 22 21
13 14 14 15 16 17 17 18 19 20 20 21 21 21 22 22 22 23 23 24 25 25 25 26 26 25 26 27 28 29 30 29 29 28 27 26 25 23 23 23 23 23 23 23 23 23 23 23 22 21 21 20 20 20 20 21 21 21 21 22 22 21 19 19 18 18 18 18 18 18 18 19 19 19 19 19 19 19 20 20 20 21 22 22 23
13 14 14 15 16 17 17 18 19 19 20 20 21 21 21 21 22 23 24 24 25 26 26 26 25 25 25 26 26 27 28 28 28 27 26 26 25 24 24 23 23 24 24 24 24 24 24 24 23 23 22 21 21 21 21 21 22 22 23 23 23 23 22 21 20 20 20 20 20 20 20 20 20 21 21 20 20 20 20 21 21 21 22 22 23
14 14 14 15 16 17 18 18 19 19 19 19 19 20 21 22 22 23 24 24 25 26 26 26 26 25 25 25 25 24 24 25 25 25 25 24 24 24 23 23 23 23 23 23 23 24 24 24 23 23 22 22 21 21 21 21 22 22 23 23 23 23 22 21 21 20 21 21 21 21 21 21 21 22 22 21 21 21 21 21 21 22 22 22 23
14 15 15 15 16 17 18 19 19 19 19 19 19 20 21 22 22 23 24 24 25 26 26 27 27 26 25 23 23 22 22 22 23 24 24 24 23 23 23 22 22 22 22 22 23 23 24 24 23 22 22 21 21 21 21 21 21 22 22 22 23 22 22 21 20 20 20 21 21 21 21 21 21 21 21 21 21 21 22 22 22 22 22 22 22
15 15 15 15 15 16 17 18 18 18 18 19 19 19 20 21 22 23 23 24 24 25 26 26 27 26 25 23 22 22 22 22 23 23 23 23 23 23 22 22 22 22 22 22 22 23 23 24 23 23 22 21 20 20 20 20 21 21 22 22 23 22 22 21 20 20 21 21 21 21 21 20 21 21 20 20 20 21 21 21 22 22 22 22 22
15 15 16 16 16 16 16 17 18 18 19 19 19 19 20 21 22 22 23 24 24 25 25 25 25 25 24 23 22 22 22 22 22 23 23 23 23 22 22 22 22 22 22 23 23 23 23 24 24 24 23 22 21 21 21 20 21 21 22 22 23 23 22 21 21 21 21 22 22 22 22 21 21 20 20 20 20 21 21 21 21 21 21 22 22
15 16 17 17 17 17 17 18 18 19 19 19 20 20 20 21 21 22 23 23 24 24 24 24 24 23 22 22 22 22 22 22 22 22 22 22 22 22 22 22 22 22 23 23 23 23 23 24 24 24 24 23 22 21 21 21 21 21 21 22 22 23 22 22 22 22 21 22 22 22 22 22 21 21 20 20 20 20 21 20 20 20 21 21 22
16 16 17 18 18 18 18 19 19 19 19 20 20 21 21 21 22 22 22 22 23 23 23 23 22 22 21 21 22 22 22 22 22 22 22 22 22 22 22 23 23 23 23 22 23 23 23 23 23 23 23 23 22 22 21 21 20 20 20 21 21 22 22 22 22 22 22 22 22 22 23 23 22 21 20 20 20 20 20 19 19 19 19 20 21
16 17 17 18 18 19 19 19 20 20 20 20 20 20 21 21 21 22 22 22 22 23 22 22 21 21 21 21 21 21 21 22 22 22 22 22 22 22 23 23 23 23 23 23 23 23 23 23 23 23 23 23 23 22 22 21 21 21 21 21 21 22 22 22 22 22 22 22 22 22 22 22 21 20 20 19 19 19 19 18 18 18 18 19 20
16 17 18 18 19 19 20 21 21 21 21 22 22 21 21 21 21 21 22 22 21 22 22 21 20 20 21 21 20 20 21 21 21 21 21 22 22 22 22 23 23 23 23 23 23 23 23 23 23 23 23 23 23 23 23 23 22 22 22 22 22 23 23 23 23 23 22 22 22 21 21 21 21 20 19 19 18 18 18 18 18 18 18 19 19
17 18 18 19 19 20 20 21 21 22 22 22 23 22 22 21 21 21 21 21 21 20 20 20 20 20 20 21 21 21 21 21 21 21 21 21 22 22 22 22 23 23 23 23 23 23 23 23 23 23 23 23 23 23 23 23 23 23 23 24 24 24 24 24 23 22 21 21 21 20 20 20 19 19 18 18 17 18 18 18 18 18 19 19 19
18 18 19 19 20 20 21 21 21 21 22 22 23 23 23 22 22 21 21 21 21 20 19 19 19 19 20 20 21 21 20 20 20 21 21 21 21 22 22 22 23 23 23 23 23 23 23 23 23 23 23 23 23 24 24 23 24 24 24 25 25 25 24 24 23 21 20 19 19 18 18 17 17 16 16 15 16 16 16 16 17 17 18 18 18
Wind_Direction
354 351 349 346 343 341 339 338 337 335 333 332 329 327 325 322 321 320 320 318 317 316 316 315 315 314 313 312 311 310 309 308 307 305 304 302 300 299 297 296 294 293 292 291 289 288 287 286 284 283 282 280 277 276 275 273 272 270 269 268 265 263 263 264 265 267 266 266 269 268 267 266 262 258 256 253 250 250 249 249 250 250 251 253 254
350 346 344 341 338 336 335 334 334 332 331 330 329 327 325 323 321 319 318 317 316 315 314 314 314 314 314 314 313 312 312 311 310 309 309 308 306 305 303 301 298 296 294 293 292 291 289 288 288 288 287 285 283 283 281 279 277 275 273 272 271 269 268 269 270 271 269 267 269 271 272 274 271 267 265 262 258 255 252 250 248 247 247 247 247
344 341 338 336 334 333 331 331 330 329 327 326 325 325 323 321 320 318 316 316 314 313 313 313 313 312 312 313 312 312 312 312 312 312 312 312 311 310 308 306 303 301 298 296 295 293 291 290 290 290 290 289 288 287 286 285 283 281 278 277 276 274 273 273 272 273 273 271 270 273 275 276 276 274 273 272 268 263 260 256 253 252 251 251 251
340 337 335 333 331 330 329 328 327 325 324 323 322 320 319 317 316 314 313 313 311 310 311 311 310 310 310 310 310 310 310 310 311 311 312 313 313 311 310 307 305 304 302 301 299 297 294 292 290 290 290 290 290 289 289 288 286 286 285 283 281 279 277 276 274 273 275 274 272 274 277 278 278 277 276 277 276 273 270 267 263 259 257 256 257
337 335 332 331 330 329 327 326 324 322 321 320 318 317 315 313 312 311 309 308 308 307 308 308 308 309 309 309 309 308 308 308 308 309 310 311 311 310 309 307 305 304 303 302 301 299 297 295 292 292 292 290 289 289 287 287 286 286 286 285 284 283 280 278 276 273 273 274 274 275 277 279 279 278 277 278 278 278 276 275 274 271 268 265 263
336 335 332 330 330 328 326 324 322 321 319 318 316 314 313 311 310 309 307 306 306 306 306 307 307 309 309 310 310 309 309 308 307 307 308 308 308 306 305 304 302 301 300 299 299 299 298 298 298 299 297 291 288 285 283 282 282 282 282 282 281 282 281 279 279 278 276 275 276 276 277 279 280 281 280 279 280 280 279 278 277 276 275 273 271
337 336 333 331 330 327 325 323 322 320 318 317 315 313 312 310 309 308 307 307 307 307 307 307 307 308 309 309 309 309 309 309 309 309 309 309 307 305 303 301 299 298 297 297 297 298 298 299 300 299 295 288 284 282 279 278 277 275 275 277 277 276 277 276 277 280 283 283 281 279 280 281 281 281 281 278 277 277 277 276 274 272 272 272 271
336 334 331 329 327 325 323 322 320 318 316 315 313 312 310 309 308 308 308 308 308 308 308 308 308 308 307 307 307 307 308 308 309 309 310 311 311 310 309 306 303 300 297 295 294 294 296 296 296 294 289 283 279 276 276 276 277 277 276 276 276 275 274 273 271 271 273 277 279 280 283 283 283 282 279 273 271 270 268 269 270 270 270 269 269
333 331 329 326 324 323 322 320 319 317 315 314 313 312 311 310 309 309 308 308 308 308 308 308 308 307 306 305 305 305 305 306 307 309 311 314 315 315 313 310 309 307 305 302 298 296 295 292 290 286 281 276 271 268 270 272 275 278 279 279 278 277 274 271 268 267 266 269 271 273 276 276 277 278 274 269 269 269 268 268 270 270 271 270 269
330 329 325 323 322 321 320 318 317 316 315 314 313 313 311 311 310 309 309 308 308 307 307 307 307 306 305 304 303 303 302 302 304 306 309 311 313 313 312 311 310 309 306 304 298 291 284 279 276 274 270 267 266 266 268 270 272 274 278 280 280 279 277 274 270 268 267 268 269 269 271 270 269 269 270 269 268 268 268 269 271 272 273 273 272
327 326 323 321 321 321 318 318 317 316 315 314 313 313 312 311 310 310 309 308 307 307 306 306 306 305 305 304 303 302 301 301 302 303 303 304 305 307 308 306 303 300 297 293 288 282 278 274 271 269 267 267 268 270 272 274 277 279 281 282 281 279 277 276 274 271 268 268 268 269 270 272 270 269 271 271 269 270 274 275 278 282 282 282 281
325 325 324 321 321 320 318 318 317 316 315 315 314 313 313 311 311 310 310 310 309 308 308 308 307 306 306 304 304 304 303 303 303 303 302 301 300 300 301 301 298 296 292 288 284 283 282 282 280 278 277 277 276 277 279 280 282 284 285 286 284 281 277 275 274 273 271 269 268 267 267 269 269 268 269 272 273 277 282 282 284 286 284 283 284
325 325 324 321 320 320 318 317 316 315 315 315 314 313 313 312 312 312 312 312 311 311 311 310 309 308 308 306 306 305 305 305 306 306 306 303 297 296 298 297 293 291 289 287 287 288 289 289 289 288 287 286 285 284 283 283 284 284 285 285 285 284 281 276 272 270 269 268 267 267 266 266 267 268 269 273 278 282 285 285 284 282 279 279 280
325 325 323 320 319 318 317 316 316 316 315 315 315 315 315 315 315 315 315 314 314 314 313 312 311 310 310 309 308 307 306 307 308 307 307 304 300 298 296 292 289 289 289 290 292 293 293 292 291 290 289 288 287 286 285 285 285 285 286 287 287 287 283 277 271 267 265 265 266 267 267 266 266 267 268 272 280 283 282 279 276 272 273 274 275
324 323 322 320 318 317 317 317 317 318 318 318 318 318 318 317 318 318 317 317 316 315 314 313 312 311 311 310 308 307 307 307 307 306 304 302 301 299 295 291 289 289 288 288 289 290 291 292 292 292 291 289 288 287 287 287 289 291 293 292 290 286 279 272 269 267 266 266 265 266 270 272 270 268 270 273 274 271 265 263 264 266 270 273 274
322 321 321 319 318 319 319 319 320 321 321 321 320 320 319 319 320 320 319 318 317 315 314 313 312 311 311 310 308 307 306 307 306 304 302 302 302 301 297 293 291 289 287 286 286 287 289 291 292 293 293 292 291 291 291 293 297 301 303 301 298 292 284 277 271 266 267 272 271 268 267 269 264 259 259 261 254 246 244 250 257 265 271 274 276
322 321 321 320 320 321 322 322 322 322 322 322 321 321 321 321 321 321 320 318 317 316 315 314 314 313 312 312 311 310 309 309 307 305 304 306 306 303 299 296 294 292 290 288 288 288 288 289 291 293 294 294 294 294 296 299 301 303 303 300 296 293 290 286 280 270 260 258 263 261 249 240 239 235 227 227 235 238 242 251 259 269 276 280 283
323 322 323 323 323 324 323 323 323 322 322 323 322 322 322 322 322 322 321 320 318 318 318 316 317 317 316 316 316 314 312 311 310 308 309 309 307 304 302 300 297 295 294 292 292 292 290 288 287 288 291 293 293 295 299 300 296 295 294 291 288 287 287 285 282 274 262 253 253 255 247 237 234 230 226 234 247 253 259 267 273 279 282 285 289
325 325 325 325 325 324 324 323 323 323 323 324 322 323 324 324 323 323 322 321 320 320 320 319 318 319 318 317 316 314 312 311 311 311 311 308 307 306 305 303 301 300 300 300 298 295 291 288 286 283 283 286 289 291 298 302 296 289 286 283 280 280 280 277 272 266 259 253 249 247 243 239 237 236 238 248 260 267 273 279 282 284 285 286 289
326 326 326 326 325 326 326 325 325 325 325 324 323 324 326 325 324 324 323 323 322 321 321 320 318 318 318 316 314 313 312 311 311 312 310 308 309 308 305 304 305 307 309 308 303 298 294 290 288 283 278 279 283 286 296 306 297 282 284 294 284 274 270 268 265 261 255 253 250 247 246 246 247 250 254 259 266 271 275 279 282 285 287 288 289
327 327 327 327 327 328 328 327 327 326 327 326 325 326 327 325 325 326 325 324 323 322 322 322 320 319 318 317 315 314 314 313 312 313 312 310 310 307 303 305 310 314 315 310 303 300 297 295 292 288 281 275 274 279 292 299 287 277 292 310 282 265 265 266 268 270 268 267 265 262 262 262 262 263 266 268 271 274 275 277 281 285 288 289 290
328 328 328 328 328 329 329 329 328 328 328 327 326 327 328 326 326 327 326 325 326 325 325 325 324 322 322 322 321 320 319 318 316 316 316 313 310 306 302 304 310 316 314 308 305 303 301 299 296 293 288 279 271 273 286 290 282 278 282 277 261 263 274 278 281 283 282 282 282 279 279 280 278 277 278 279 281 281 281 282 284 286 288 288 287
329 329 329 329 330 330 330 330 330 330 330 329 328 328 328 327 328 330 329 329 329 329 329 330 328 327 327 327 326 325 323 322 321 321 321 320 318 313 304 302 308 314 314 311 310 306 302 300 299 297 293 286 274 270 282 288 283 277 273 270 271 278 285 288 290 290 290 290 290 289 290 290 288 287 287 287 287 287 287 288 288 287 286 285 284
330 330 330 330 331 331 332 332 333 333 333 331 330 331 331 330 332 333 332 332 331 331 333 333 331 331 330 329 329 328 326 324 325 325 326 327 327 322 314 309 312 316 316 312 310 306 302 302 301 297 293 288 277 269 275 281 280 277 276 276 280 284 288 291 294 294 294 294 294 294 295 294 293 293 292 292 291 290 290 290 289 288 287 286 285
332 332 332 333 333 333 334 336 336 336 337 335 334 335 335 334 335 336 335 335 335 335 335 335 333 333 332 330 329 328 326 325 326 328 329 329 328 325 323 320 318 318 316 312 308 306 303 301 297 290 286 285 280 271 269 271 275 278 280 281 283 286 288 292 294 295 296 296 296 297 297 296 295 295 295 295 293 292 292 291 290 290 289 288 286
334 334 335 336 336 337 338 339 340 342 342 341 340 340 340 339 338 339 339 339 338 337 337 336 335 334 332 330 327 325 324 325 326 328 329 330 329 329 329 324 319 317 316 315 313 311 307 302 296 286 280 282 283 276 270 271 273 276 278 278 280 283 286 289 292 294 294 295 296 297 296 296 296 296 296 295 294 293 293 293 292 292 291 289 287
337 336 337 339 340 342 343 344 345 347 346 345 345 345 345 343 342 343 344 342 340 339 339 337 336 333 330 327 325 323 324 326 327 329 331 332 332 330 326 321 318 319 320 322 322 319 314 309 302 291 283 285 287 280 274 273 274 274 276 278 279 283 287 290 293 294 295 296 297 298 297 297 297 296 295 293 292 293 294 293 293 293 292 291 288
338 338 340 343 345 346 347 347 348 349 348 348 349 349 349 348 347 347 348 344 340 339 338 335 334 332 328 325 324 324 325 327 329 331 332 329 327 325 321 319 320 322 324 326 324 320 319 316 309 300 298 299 292 279 272 272 274 275 278 279 281 284 288 290 291 293 295 297 298 298 298 297 296 295 294 292 292 293 293 292 292 293 293 292 290
340 340 343 346 348 348 349 350 350 350 349 349 352 354 354 352 350 349 350 347 341 338 335 332 331 328 325 323 324 324 325 328 330 329 325 322 321 320 318 318 319 319 320 321 318 319 325 327 317 303 301 297 288 279 273 272 273 276 279 282 284 287 289 291 293 295 296 298 299 298 297 297 296 295 294 293 292 293 294 293 293 294 293 292 290
342 344 346 349 350 350 351 352 352 352 351 351 352 355 357 357 355 352 351 349 345 340 334 330 327 325 322 321 322 323 322 324 325 324 322 321 319 315 315 316 317 315 315 315 312 314 324 329 318 298 291 287 285 286 286 285 285 286 287 289 290 292 293 295 297 298 298 298 298 298 298 297 296 295 295 294 293 294 295 295 295 295 295 294 292
345 347 350 352 352 352 352 353 354 354 354 353 352 352 353 357 2 1 356 351 349 345 338 330 326 324 321 320 320 320 319 320 321 321 321 320 317 316 316 316 316 316 316 313 310 309 314 315 309 300 295 294 294 296 297 297 298 297 296 295 294 295 297 298 299 299 299 299 298 298 298 297 297 296 296 296 296 297 298 298 298 298 298 296 294
347 350 352 353 354 354 354 355 355 354 354 355 354 353 352 353 358 4 4 360 355 351 345 338 331 327 324 321 320 320 321 322 322 322 321 320 319 318 316 315 317 319 318 314 309 307 307 307 305 303 301 300 299 299 299 300 299 299 299 299 299 299 300 300 300 300 301 301 300 299 298 298 298 297 297 298 300 301 301 301 302 302 300 297 295
349 352 354 354 357 357 356 355 355 355 355 355 355 355 354 352 352 355 359 2 3 1 356 348 339 333 329 326 324 323 324 326 325 324 323 322 320 318 317 318 322 324 321 316 311 305 301 300 300 300 300 300 300 299 299 299 299 300 301 301 301 300 301 301 301 301 302 301 299 298 298 298 298 297 298 299 300 301 302 304 304 303 301 299 297
353 355 356 357 358 358 358 357 356 356 357 356 354 355 355 353 350 349 350 353 357 1 2 357 347 339 335 333 331 330 330 331 330 328 326 325 322 319 318 321 324 324 319 315 312 306 300 297 295 294 295 296 297 298 298 299 300 300 300 300 299 299 300 301 302 302 301 300 298 297 298 298 297 298 299 299 300 301 302 304 305 304 302 302 301
358 360 1 0 359 360 360 358 357 356 356 355 354 353 353 351 350 348 347 347 349 351 355 357 354 349 344 340 339 339 339 338 336 333 331 329 326 323 322 323 326 326 324 320 316 311 307 303 300 299 298 297 298 299 299 300 300 301 301 301 301 301 302 304 304 303 302 301 299 298 297 297 297 298 299 299 301 303 304 306 307 305 304 305 303
4 7 6 3 2 2 1 358 356 355 354 353 352 352 351 350 349 348 348 348 347 348 351 353 354 355 354 349 347 348 348 345 342 340 339 336 332 329 328 328 329 329 330 328 324 319 316 313 310 308 305 304 303 303 303 303 304 303 304 304 304 306 307 308 307 307 304 302 301 300 298 298 299 300 300 301 303 305 306 307 307 305 305 305 304
8 8 7 4 2 1 1 358 356 354 353 352 351 350 351 351 350 350 350 350 350 351 353 353 353 354 357 357 354 353 354 352 348 348 346 343 339 335 333 331 331 331 332 333 330 325 324 322 319 316 314 313 312 311 309 309 308 308 308 308 308 309 310 311 310 309 307 305 304 303 302 302 303 304 303 303 304 305 306 306 305 304 305 304 303
7 4 3 2 1 359 358 357 356 354 353 352 350 350 351 351 351 351 352 353 353 353 353 354 353 351 351 352 352 351 352 353 353 353 352 348 344 340 336 334 333 332 333 333 332 328 328 329 327 324 322 321 319 317 315 314 313 313 312 312 312 313 313 313 313 311 309 308 307 306 305 305 306 306 305 305 307 308 307 306 305 304 304 303 301
4 1 359 358 358 357 355 354 354 352 351 350 350 350 351 351 352 353 353 353 354 353 352 353 353 350 348 347 347 347 349 351 351 350 349 348 346 342 339 336 335 333 333 333 332 330 329 330 330 329 327 325 322 320 318 316 315 315 314 313 314 315 315 314 313 311 309 308 306 305 305 305 306 306 305 306 308 309 307 307 306 305 304 303 302
2 360 356 354 355 354 353 351 350 349 348 349 349 350 351 351 351 352 352 351 351 351 351 351 351 350 348 346 344 344 344 344 345 344 343 343 343 341 339 336 334 333 333 332 330 329 328 329 330 329 327 325 323 320 318 316 314 314 313 312 311 312 312 312 311 309 307 305 303 302 302 302 302 302 302 303 305 305 304 305 305 304 303 303 303
357 356 353 351 350 350 350 350 349 347 347 348 347 347 349 349 349 349 349 348 347 348 348 348 348 349 347 344 342 341 339 339 340 341 341 342 343 342 342 340 337 336 335 334 332 331 330 331 332 330 329 327 325 321 318 317 315 313 312 310 310 310 310 310 309 307 305 303 301 299 299 299 300 299 300 301 301 300 300 301 302 303 304 303 303
351 350 349 348 348 347 348 348 348 347 347 346 346 345 345 346 346 345 345 346 345 345 345 346 346 347 347 344 343 342 341 341 342 343 344 345 346 345 345 344 342 341 339 337 335 334 334 336 336 335 333 332 329 325 322 320 318 315 314 313 311 311 311 310 309 307 304 301 300 299 299 299 299 298 299 299 299 299 299 299 300 301 301 300 300
346 345 346 346 346 346 346 345 346 346 345 344 345 344 342 342 343 342 342 343 343 343 343 344 345 347 348 348 347 347 347 347 346 346 347 348 349 349 349 348 347 346 344 342 340 338 339 340 341 341 339 337 334 330 328 325 322 320 318 317 316 315 315 314 312 309 306 303 301 301 300 300 299 299 298 299 299 299 298 298 298 298 297 296 297
343 343 343 343 343 344 343 341 341 342 342 341 341 340 339 339 339 339 340 341 341 342 343 344 345 346 349 351 351 351 351 351 350 350 351 351 351 352 352 351 351 350 349 347 346 344 344 345 345 347 347 346 342 339 337 333 330 327 324 322 321 321 320 319 316 313 310 307 305 306 304 303 302 301 301 301 301 299 298 299 298 297 296 296 296
341 340 340 340 341 342 341 339 339 338 338 338 338 338 337 337 337 337 338 339 340 342 343 344 345 347 348 351 352 352 352 353 353 353 353 353 353 354 353 353 354 353 352 350 349 348 348 347 348 349 351 350 349 347 344 341 338 335 331 329 327 326 325 322 318 314 311 309 308 308 307 306 306 305 305 305 304 302 301 301 300 298 298 298 297
339 338 337 337 339 340 339 338 337 337 336 336 336 337 337 337 337 337 338 339 339 341 343 344 346 347 348 350 351 352 352 353 353 354 355 355 354 355 354 354 354 354 353 352 350 349 349 349 348 349 350 350 349 349 347 344 342 340 337 334 331 329 328 325 321 317 315 311 309 308 307 307 307 308 307 306 305 303 303 302 301 301 301 300 299
335 335 335 335 336 337 337 336 336 335 334 335 335 336 337 337 337 337 338 338 339 340 341 343 345 346 347 349 350 351 352 353 353 354 355 355 355 355 355 355 355 354 354 353 351 349 349 349 348 347 348 348 348 348 347 346 344 342 340 338 336 333 332 328 324 321 318 314 310 308 307 306 307 308 307 306 305 303 303 302 302 302 302 301 301
332 333 333 333 333 334 334 334 334 333 333 333 334 335 335 336 336 336 337 338 339 340 341 342 345 346 347 349 349 350 351 352 353 354 354 354 355 356 356 355 355 354 354 353 352 350 350 349 348 347 347 347 348 348 348 347 346 345 343 342 339 337 335 332 328 325 321 316 312 309 307 306 307 307 306 306 305 303 303 302 302 303 302 301 301
331 331 332 332 332 332 331 331 332 332 332 332 333 333 334 334 335 335 336 337 339 340 340 342 343 345 346 347 348 349 350 351 352 353 354 354 355 356 356 356 356 355 354 354 354 352 351 350 349 348 348 348 348 349 349 348 347 346 344 343 342 341 339 336 333 329 325 320 316 313 310 309 309 309 308 307 306 304 303 302 302 301 300 300 302
330 330 330 331 330 330 330 330 330 330 330 329 330 330 331 332 333 334 335 336 338 340 340 341 343 344 345 346 347 348 349 350 352 353 354 354 355 356 356 356 356 356 355 355 354 353 352 352 350 349 349 349 350 350 350 349 348 346 345 345 344 343 341 338 335 331 326 320 317 315 314 312 311 311 310 309 307 305 303 302 302 302 302 303 306
329 328 329 329 328 329 328 328 328 328 328 328 328 328 329 331 332 333 334 336 338 339 340 341 342 343 344 344 345 346 348 349 351 352 353 354 354 355 355 356 356 355 355 355 355 354 353 352 352 351 351 350 350 351 350 350 349 349 348 347 345 344 343 342 341 337 331 325 321 319 318 317 315 314 314 312 309 307 305 305 305 305 306 308 309
Height
1503 1503 1502 1501 1500 1499 1498 1498 1497 1496 1495 1494 1493 1492 1491 1490 1488 1487 1486 1484 1483 1482 1480 1479 1477 1476 1474 1473 1472 1471 1470 1468 1467 1466 1465 1465 1464 1464 1463 1462 1461 1460 1459 1459 1458 1457 1456 1455 1454 1454 1454 1453 1453 1453 1453 1453 1452 1452 1452 1451 1451 1451 1450 1449 1445 1439 1438 1440 1441 1440 1441 1442 1443 1444 1444 1445 1445 1445 1445 1445 1445 1445 1445 1446 1446
1502 1501 1500 1500 1499 1498 1497 1496 1495 1494 1493 1492 1491 1490 1489 1488 1486 1485 1484 1483 1481 1480 1478 1476 1475 1473 1472 1470 1469 1468 1467 1465 1464 1463 1462 1461 1460 1460 1459 1458 1457 1456 1455 1454 1454 1453 1452 1451 1450 1450 1449 1449 1448 1448 1447 1447 1447 1446 1446 1446 1445 1446 1445 1445 1443 1438 1434 1434 1436 1436 1436 1437 1437 1438 1438 1439 1440 1440 1440 1440 1440 1440 1440 1440 1440
1502 1501 1500 1499 1498 1497 1496 1495 1494 1493 1492 1491 1489 1488 1487 1486 1484 1483 1482 1481 1479 1477 1476 1474 1472 1471 1469 1468 1466 1465 1464 1462 1461 1460 1459 1457 1456 1456 1455 1454 1453 1452 1451 1450 1449 1449 1448 1447 1446 1446 1445 1444 1444 1443 1443 1442 1442 1441 1441 1441 1440 1440 1441 1440 1439 1436 1432 1429 1431 1432 1431 1431 1431 1432 1432 1432 1433 1434 1434 1435 1435 1435 1435 1435 1435
1501 1500 1499 1498 1497 1496 1495 1494 1493 1492 1490 1489 1488 1487 1485 1484 1483 1481 1480 1478 1477 1475 1474 1472 1470 1468 1467 1466 1464 1463 1461 1460 1458 1457 1456 1455 1453 1452 1451 1450 1449 1448 1447 1446 1445 1444 1444 1443 1442 1442 1441 1440 1439 1439 1438 1437 1437 1436 1436 1436 1436 1435 1436 1435 1434 1433 1430 1426 1425 1426 1427 1426 1426 1427 1427 1426 1426 1427 1427 1428 1429 1429 1430 1430 1430
1500 1499 1498 1497 1496 1495 1494 1492 1491 1490 1489 1487 1486 1485 1483 1482 1481 1480 1478 1476 1474 1473 1471 1469 1467 1465 1464 1463 1461 1460 1459 1458 1456 1455 1454 1453 1451 1449 1448 1446 1445 1444 1443 1442 1441 1440 1439 1438 1438 1438 1438 1436 1435 1435 1434 1433 1433 1432 1432 1431 1431 1431 1430 1430 1429 1429 1427 1423 1421 1421 1422 1422 1421 1422 1422 1422 1421 1421 1421 1421 1422 1422 1423 1424 1424
1499 1498 1497 1495 1495 1494 1492 1491 1489 1488 1487 1485 1484 1483 1481 1480 1478 1477 1476 1474 1472 1470 1468 1466 1464 1462 1460 1458 1457 1455 1454 1454 1453 1452 1451 1450 1448 1447 1445 1443 1442 1441 1440 1439 1438 1436 1435 1434 1434 1434 1433 1432 1431 1431 1430 1430 1429 1429 1428 1427 1427 1426 1426 1425 1425 1424 1423 1421 1418 1417 1417 1417 1417 1417 1417 1417 1416 1416 1415 1415 1416 1416 1416 1416 1417
1497 1496 1495 1493 1493 1492 1490 1489 1487 1486 1484 1483 1481 1480 1478 1477 1475 1474 1472 1470 1468 1467 1465 1463 1461 1459 1457 1455 1453 1451 1449 1448 1448 1448 1447 1447 1445 1443 1442 1441 1439 1438 1437 1436 1434 1433 1432 1431 1430 1430 1430 1429 1428 1427 1426 1426 1425 1425 1424 1424 1423 1423 1422 1421 1421 1421 1419 1418 1416 1414 1412 1413 1413 1412 1413 1413 1412 1411 1411 1410 1410 1411 1411 1411 1411
1495 1494 1493 1491 1490 1489 1488 1487 1485 1484 1482 1480 1479 1477 1476 1474 1472 1471 1469 1467 1465 1463 1461 1459 1457 1456 1454 1452 1450 1448 1446 1444 1443 1443 1443 1442 1440 1439 1437 1436 1435 1434 1433 1432 1431 1430 1429 1428 1427 1426 1426 1425 1424 1424 1423 1422 1421 1420 1421 1421 1420 1419 1419 1418 1418 1417 1416 1414 1413 1411 1410 1409 1409 1408 1409 1409 1408 1408 1408 1406 1405 1406 1406 1406 1406
1493 1492 1490 1489 1488 1486 1485 1484 1483 1481 1479 1478 1476 1474 1473 1471 1469 1467 1466 1463 1461 1459 1457 1455 1453 1452 1450 1449 1447 1445 1443 1441 1440 1439 1438 1437 1436 1435 1434 1433 1431 1430 1429 1428 1427 1427 1425 1424 1424 1423 1423 1422 1421 1420 1420 1419 1418 1417 1416 1417 1416 1415 1415 1414 1414 1413 1412 1411 1409 1408 1407 1405 1405 1405 1405 1405 1404 1404 1404 1402 1401 1401 1401 1400 1401
1492 1490 1488 1487 1486 1484 1483 1481 1480 1478 1476 1475 1473 1471 1469 1467 1465 1464 1462 1460 1458 1456 1454 1452 1450 1448 1446 1445 1443 1442 1440 1439 1438 1438 1437 1436 1435 1433 1431 1430 1429 1427 1426 1425 1424 1423 1422 1421 1420 1420 1419 1418 1418 1417 1416 1416 1415 1414 1413 1413 1412 1411 1410 1410 1409 1409 1408 1407 1405 1405 1403 1402 1402 1402 1401 1402 1401 1400 1400 1399 1397 1397 1397 1395 1395
1490 1488 1486 1484 1483 1482 1480 1478 1477 1475 1473 1472 1470 1468 1466 1464 1461 1460 1458 1456 1454 1452 1450 1448 1447 1445 1443 1441 1439 1438 1437 1436 1435 1435 1435 1434 1433 1431 1429 1427 1425 1424 1423 1421 1419 1418 1417 1416 1416 1415 1415 1414 1413 1413 1412 1411 1410 1409 1409 1409 1408 1407 1406 1405 1404 1404 1404 1402 1401 1401 1400 1398 1398 1399 1398 1398 1398 1397 1396 1396 1394 1394 1394 1392 1390
1487 1486 1484 1482 1480 1479 1477 1475 1474 1472 1470 1468 1466 1464 1462 1460 1458 1455 1453 1452 1450 1448 1446 1444 1442 1441 1439 1437 1435 1434 1432 1432 1432 1432 1431 1431 1430 1428 1426 1423 1421 1419 1418 1416 1414 1413 1411 1411 1410 1410 1410 1409 1408 1408 1407 1406 1405 1404 1403 1403 1403 1403 1402 1401 1400 1399 1399 1397 1396 1396 1396 1395 1394 1395 1395 1394 1394 1394 1393 1392 1391 1390 1389 1389 1387
1485 1484 1482 1479 1478 1476 1474 1472 1470 1468 1467 1465 1463 1460 1458 1456 1454 1451 1449 1447 1445 1443 1442 1440 1438 1437 1435 1433 1431 1430 1429 1428 1428 1428 1427 1427 1427 1425 1422 1419 1417 1414 1413 1411 1410 1408 1407 1405 1405 1404 1404 1404 1403 1402 1401 1400 1400 1399 1399 1398 1398 1398 1398 1397 1396 1395 1394 1392 1391 1390 1391 1391 1390 1390 1391 1391 1390 1389 1389 1388 1387 1386 1385 1385 1383
1482 1481 1479 1477 1475 1473 1471 1469 1467 1465 1463 1461 1459 1456 1454 1452 1450 1448 1445 1443 1441 1439 1437 1435 1434 1432 1431 1429 1427 1426 1425 1424 1424 1424 1423 1423 1422 1421 1418 1414 1411 1410 1408 1407 1406 1404 1403 1401 1400 1399 1399 1399 1398 1398 1397 1396 1395 1394 1394 1393 1393 1393 1392 1392 1391 1391 1390 1389 1387 1386 1386 1387 1386 1386 1387 1387 1386 1385 1384 1383 1382 1381 1380 1380 1380
1480 1478 1476 1474 1472 1470 1467 1465 1463 1461 1459 1457 1454 1452 1450 1448 1446 1444 1442 1439 1438 1436 1434 1432 1430 1428 1427 1426 1423 1422 1421 1420 1420 1420 1419 1419 1418 1416 1413 1409 1407 1405 1404 1403 1402 1400 1399 1398 1397 1395 1395 1394 1394 1394 1393 1392 1391 1390 1389 1389 1388 1388 1387 1387 1387 1386 1386 1385 1384 1383 1383 1383 1383 1383 1383 1383 1382 1381 1380 1379 1378 1378 1377 1376 1376
1477 1475 1474 1471 1469 1467 1464 1461 1459 1457 1455 1453 1450 1448 1446 1444 1442 1440 1438 1436 1434 1433 1431 1429 1427 1425 1424 1422 1420 1418 1417 1416 1416 1415 1415 1415 1414 1411 1408 1405 1403 1401 1399 1398 1398 1397 1396 1395 1394 1392 1391 1391 1391 1390 1389 1388 1387 1386 1385 1384 1383 1383 1382 1382 1383 1383 1382 1382 1381 1380 1380 1380 1380 1379 1379 1377 1376 1376 1376 1375 1375 1375 1374 1373 1372
1474 1472 1471 1468 1466 1463 1461 1458 1456 1454 1452 1449 1447 1445 1443 1441 1439 1437 1435 1433 1431 1429 1427 1425 1424 1422 1420 1418 1416 1414 1412 1412 1411 1410 1411 1411 1410 1407 1403 1401 1399 1397 1395 1394 1394 1393 1392 1391 1391 1389 1388 1388 1387 1387 1387 1386 1385 1383 1381 1380 1379 1378 1378 1377 1378 1378 1379 1379 1378 1376 1376 1375 1375 1375 1375 1373 1372 1373 1373 1372 1373 1372 1371 1370 1369
1471 1469 1467 1465 1463 1461 1458 1456 1454 1451 1449 1447 1444 1442 1440 1438 1436 1434 1432 1430 1428 1426 1424 1422 1421 1419 1417 1415 1413 1411 1409 1408 1407 1406 1407 1408 1407 1403 1400 1397 1395 1393 1391 1390 1390 1389 1387 1387 1387 1387 1385 1384 1384 1384 1384 1384 1382 1381 1379 1377 1375 1375 1374 1373 1373 1373 1374 1374 1374 1373 1373 1372 1372 1372 1372 1370 1369 1370 1370 1369 1370 1369 1367 1367 1365
1468 1466 1464 1462 1460 1458 1456 1454 1451 1449 1447 1444 1442 1440 1438 1436 1434 1432 1430 1428 1425 1423 1422 1419 1417 1416 1415 1413 1411 1409 1406 1405 1404 1403 1403 1403 1403 1401 1397 1394 1391 1389 1388 1387 1386 1385 1383 1383 1384 1384 1383 1382 1381 1381 1382 1381 1379 1378 1376 1373 1372 1372 1371 1370 1369 1369 1370 1370 1370 1370 1370 1369 1369 1369 1369 1368 1367 1367 1367 1366 1366 1365 1364 1363 1363
1466 1464 1462 1460 1458 1456 1454 1451 1449 1447 1444 1442 1439 1438 1436 1433 1431 1430 1428 1425 1423 1421 1419 1417 1415 1413 1412 1410 1408 1407 1404 1402 1400 1400 1399 1399 1400 1398 1394 1391 1389 1387 1386 1384 1382 1380 1379 1379 1380 1380 1380 1379 1379 1378 1379 1379 1376 1374 1373 1371 1369 1369 1368 1367 1367 1367 1367 1367 1366 1366 1366 1366 1366 1366 1365 1365 1364 1364 1364 1363 1362 1362 1361 1360 1359
1464 1462 1460 1458 1455 1453 1451 1449 1446 1444 1442 1440 1437 1436 1434 1432 1429 1427 1425 1423 1421 1418 1416 1415 1412 1410 1409 1408 1406 1404 1402 1400 1398 1396 1395 1395 1396 1395 1392 1389 1387 1385 1383 1381 1379 1377 1376 1375 1376 1376 1377 1376 1376 1376 1377 1377 1373 1372 1372 1369 1367 1366 1366 1365 1365 1364 1364 1364 1364 1363 1363 1363 1363 1363 1362 1361 1361 1361 1361 1361 1360 1359 1358 1356 1355
1462 1459 1457 1455 1453 1451 1449 1447 1444 1442 1440 1438 1436 1434 1432 1430 1427 1425 1423 1420 1418 1416 1414 1412 1410 1407 1406 1405 1403 1401 1400 1398 1396 1394 1392 1391 1392 1392 1389 1386 1385 1383 1380 1378 1376 1375 1373 1373 1372 1373 1373 1373 1373 1374 1374 1372 1369 1369 1370 1367 1365 1364 1364 1363 1363 1362 1362 1362 1361 1361 1360 1360 1360 1359 1359 1358 1358 1358 1358 1357 1356 1356 1355 1353 1351
1460 1457 1455 1453 1451 1449 1447 1445 1443 1441 1438 1436 1434 1432 1430 1428 1425 1423 1421 1418 1416 1414 1411 1409 1407 1405 1403 1402 1400 1399 1397 1395 1394 1392 1390 1388 1388 1388 1386 1384 1382 1381 1378 1375 1374 1372 1371 1370 1369 1369 1369 1369 1370 1371 1370 1367 1366 1366 1366 1364 1363 1362 1361 1360 1360 1360 1359 1359 1358 1357 1357 1357 1356 1356 1355 1354 1354 1353 1353 1352 1351 1351 1349 1348 1347
1458 1456 1454 1451 1449 1447 1445 1443 1441 1439 1437 1434 1432 1430 1428 1425 1423 1422 1419 1417 1414 1411 1409 1407 1405 1402 1400 1399 1397 1396 1394 1393 1391 1390 1388 1386 1385 1384 1382 1380 1379 1377 1375 1373 1371 1369 1368 1367 1367 1366 1366 1365 1366 1367 1365 1363 1362 1362 1361 1361 1360 1359 1358 1357 1357 1356 1356 1356 1354 1354 1354 1353 1352 1351 1350 1350 1349 1348 1347 1346 1346 1345 1343 1342 1341
1456 1454 1452 1449 1447 1445 1443 1441 1439 1437 1435 1433 1430 1428 1426 1423 1421 1420 1417 1415 1412 1410 1408 1406 1403 1401 1399 1397 1395 1393 1392 1390 1389 1388 1386 1385 1383 1381 1379 1378 1376 1375 1373 1371 1369 1367 1366 1365 1364 1363 1362 1362 1361 1361 1360 1359 1359 1358 1358 1358 1357 1356 1355 1354 1353 1353 1353 1352 1351 1350 1350 1349 1348 1347 1346 1345 1344 1343 1342 1341 1340 1339 1338 1336 1335
1454 1452 1449 1448 1446 1443 1441 1440 1438 1436 1434 1432 1430 1427 1425 1422 1420 1418 1416 1414 1411 1409 1407 1404 1402 1400 1398 1395 1393 1391 1390 1388 1386 1385 1384 1382 1380 1379 1377 1375 1374 1372 1370 1368 1366 1364 1363 1361 1361 1360 1359 1358 1357 1357 1357 1357 1356 1355 1355 1355 1354 1353 1352 1352 1351 1350 1349 1348 1347 1346 1346 1345 1344 1343 1342 1341 1339 1338 1337 1335 1334 1333 1333 1331 1329
1451 1450 1448 1446 1444 1442 1440 1438 1436 1434 1432 1430 1428 1426 1424 1422 1419 1417 1414 1412 1410 1408 1405 1403 1401 1398 1396 1394 1392 1389 1388 1386 1384 1383 1381 1379 1378 1376 1375 1373 1371 1369 1367 1365 1363 1361 1359 1358 1357 1356 1356 1355 1355 1354 1354 1354 1354 1353 1353 1352 1352 1351 1350 1349 1348 1348 1346 1345 1344 1343 1342 1341 1339 1338 1338 1336 1335 1334 1333 1331 1329 1328 1328 1326 1323
1450 1448 1446 1444 1442 1440 1439 1436 1434 1433 1431 1429 1427 1425 1422 1420 1418 1416 1414 1411 1408 1406 1404 1402 1400 1398 1395 1393 1390 1387 1386 1384 1382 1381 1379 1378 1376 1375 1373 1371 1369 1367 1365 1363 1361 1359 1356 1355 1354 1354 1354 1353 1352 1352 1352 1352 1351 1351 1350 1350 1349 1348 1348 1347 1346 1345 1343 1342 1340 1339 1338 1336 1335 1334 1333 1331 1330 1330 1329 1327 1325 1323 1323 1321 1319
1449 1447 1445 1443 1441 1439 1438 1436 1433 1431 1429 1428 1426 1424 1422 1420 1417 1415 1414 1412 1409 1407 1404 1402 1400 1397 1395 1392 1389 1386 1384 1382 1381 1380 1379 1377 1376 1374 1371 1369 1367 1365 1364 1362 1360 1357 1355 1353 1352 1352 1352 1351 1351 1351 1350 1350 1349 1349 1348 1347 1346 1346 1345 1344 1342 1341 1340 1338 1337 1335 1333 1332 1331 1330 1328 1327 1326 1326 1325 1323 1321 1320 1319 1317 1315
1447 1445 1444 1442 1440 1438 1437 1435 1433 1431 1428 1426 1424 1423 1422 1420 1418 1415 1413 1411 1409 1407 1405 1402 1400 1397 1394 1392 1390 1387 1384 1382 1380 1379 1377 1376 1374 1372 1370 1368 1366 1364 1362 1360 1358 1356 1354 1353 1351 1351 1350 1350 1349 1349 1348 1348 1347 1346 1345 1345 1344 1342 1341 1340 1339 1337 1336 1334 1333 1331 1329 1328 1326 1325 1324 1323 1322 1321 1321 1320 1318 1316 1315 1313 1311
1446 1444 1443 1441 1439 1437 1436 1434 1432 1430 1428 1426 1423 1421 1419 1418 1417 1415 1413 1410 1408 1406 1404 1402 1399 1397 1394 1391 1389 1387 1385 1382 1380 1377 1375 1374 1372 1370 1368 1366 1364 1362 1360 1358 1356 1355 1354 1353 1351 1350 1349 1349 1348 1347 1346 1345 1344 1343 1342 1341 1340 1339 1338 1336 1335 1333 1331 1330 1328 1327 1325 1324 1323 1322 1320 1319 1318 1317 1317 1316 1314 1313 1312 1310 1308
1445 1443 1442 1440 1439 1437 1435 1433 1432 1429 1427 1425 1423 1420 1417 1415 1413 1413 1412 1410 1408 1405 1403 1400 1398 1396 1394 1391 1387 1385 1383 1380 1378 1376 1374 1371 1369 1367 1365 1363 1361 1360 1358 1356 1354 1353 1352 1351 1350 1349 1348 1347 1346 1345 1344 1343 1341 1340 1338 1337 1336 1335 1334 1332 1331 1329 1327 1326 1324 1323 1322 1321 1319 1318 1317 1316 1314 1313 1312 1312 1311 1309 1308 1307 1305
1444 1443 1441 1440 1438 1437 1435 1433 1431 1429 1427 1425 1422 1420 1418 1414 1411 1409 1408 1407 1407 1405 1402 1400 1397 1394 1392 1390 1387 1384 1381 1379 1377 1374 1372 1370 1367 1365 1363 1361 1359 1358 1356 1354 1352 1351 1350 1349 1348 1347 1346 1345 1344 1342 1341 1340 1338 1337 1335 1334 1332 1331 1330 1328 1327 1325 1324 1322 1321 1319 1319 1318 1316 1315 1314 1313 1312 1310 1309 1308 1308 1306 1305 1303 1302
1443 1442 1441 1439 1438 1436 1434 1433 1431 1429 1427 1425 1422 1420 1418 1415 1412 1409 1406 1404 1403 1402 1401 1399 1396 1393 1390 1388 1386 1383 1380 1378 1375 1373 1370 1368 1366 1363 1361 1359 1358 1356 1354 1352 1351 1349 1348 1347 1346 1345 1343 1342 1341 1339 1338 1337 1335 1334 1332 1330 1329 1327 1326 1325 1323 1322 1321 1319 1318 1317 1316 1315 1314 1312 1311 1310 1309 1308 1307 1306 1305 1303 1302 1300 1299
1443 1442 1440 1439 1437 1436 1434 1433 1430 1428 1427 1425 1422 1420 1418 1415 1413 1411 1407 1404 1401 1399 1398 1396 1395 1392 1389 1386 1384 1382 1379 1377 1374 1372 1369 1367 1364 1362 1359 1357 1356 1354 1353 1351 1350 1348 1346 1344 1343 1342 1341 1339 1338 1336 1335 1333 1332 1330 1328 1327 1325 1323 1322 1321 1320 1319 1317 1316 1315 1314 1313 1312 1311 1310 1308 1307 1306 1305 1304 1303 1302 1301 1299 1298 1296
1443 1442 1440 1439 1437 1436 1434 1432 1430 1428 1426 1424 1422 1420 1418 1415 1413 1411 1408 1406 1402 1399 1397 1394 1393 1391 1389 1386 1383 1381 1378 1376 1373 1371 1369 1366 1364 1361 1358 1355 1353 1352 1350 1349 1347 1346 1344 1342 1341 1339 1338 1336 1335 1333 1332 1330 1328 1327 1325 1324 1322 1320 1319 1318 1317 1316 1315 1314 1313 1312 1310 1309 1308 1307 1306 1305 1304 1303 1302 1301 1300 1298 1297 1296 1294
1442 1441 1440 1439 1437 1435 1434 1432 1430 1428 1426 1424 1422 1420 1417 1415 1413 1410 1408 1405 1402 1400 1397 1394 1391 1389 1387 1385 1383 1380 1378 1376 1373 1371 1368 1366 1363 1361 1358 1355 1352 1350 1348 1347 1345 1343 1342 1340 1339 1337 1335 1334 1332 1331 1329 1327 1326 1324 1323 1321 1320 1318 1317 1316 1314 1313 1312 1311 1310 1309 1308 1307 1306 1305 1304 1302 1301 1301 1300 1299 1297 1296 1295 1294 1293
1442 1441 1439 1438 1436 1435 1433 1431 1429 1428 1426 1423 1421 1419 1417 1415 1412 1410 1408 1405 1402 1400 1397 1394 1391 1388 1385 1383 1381 1379 1377 1375 1372 1370 1368 1365 1363 1360 1357 1355 1352 1350 1347 1346 1344 1342 1340 1338 1337 1335 1333 1332 1330 1328 1327 1325 1324 1322 1321 1319 1318 1316 1315 1313 1312 1311 1310 1309 1308 1307 1306 1305 1304 1303 1301 1300 1299 1298 1297 1296 1295 1294 1293 1292 1291
1442 1441 1439 1437 1436 1434 1432 1430 1429 1427 1424 1423 1421 1418 1416 1414 1412 1409 1407 1404 1402 1399 1397 1394 1391 1388 1385 1382 1379 1377 1375 1372 1370 1367 1366 1363 1361 1359 1356 1354 1352 1349 1347 1345 1343 1341 1339 1337 1335 1334 1332 1330 1328 1327 1325 1323 1321 1320 1318 1317 1315 1314 1313 1312 1310 1309 1308 1307 1306 1305 1304 1303 1302 1301 1299 1298 1297 1296 1295 1294 1293 1292 1290 1289 1288
1442 1441 1439 1437 1436 1434 1432 1430 1428 1426 1424 1422 1419 1417 1415 1413 1411 1409 1406 1404 1401 1399 1396 1394 1391 1388 1385 1382 1379 1376 1373 1370 1368 1366 1364 1361 1360 1358 1355 1353 1350 1348 1346 1344 1341 1339 1337 1335 1333 1332 1330 1328 1327 1325 1323 1321 1319 1318 1316 1315 1313 1312 1311 1310 1308 1307 1306 1305 1303 1302 1302 1300 1299 1298 1297 1296 1295 1294 1292 1291 1291 1290 1288 1287 1286
1441 1440 1438 1437 1435 1433 1431 1429 1427 1425 1423 1421 1419 1417 1415 1412 1410 1408 1406 1403 1400 1398 1396 1393 1391 1388 1386 1383 1379 1376 1373 1370 1368 1366 1363 1361 1358 1356 1354 1352 1349 1346 1344 1342 1340 1338 1335 1333 1332 1330 1328 1326 1325 1322 1321 1319 1317 1315 1314 1312 1311 1309 1308 1307 1306 1305 1303 1302 1301 1300 1299 1298 1297 1296 1295 1294 1293 1292 1290 1289 1288 1287 1286 1285 1283
1441 1439 1438 1436 1434 1432 1430 1428 1426 1424 1422 1420 1418 1416 1414 1412 1410 1407 1405 1403 1400 1397 1395 1393 1390 1388 1385 1382 1380 1377 1374 1371 1368 1366 1363 1360 1358 1355 1353 1351 1348 1346 1344 1341 1339 1336 1334 1332 1330 1328 1326 1324 1323 1320 1318 1317 1315 1313 1311 1310 1308 1307 1305 1304 1304 1302 1301 1299 1298 1297 1296 1295 1294 1293 1292 1291 1290 1289 1288 1287 1286 1285 1284 1283 1281
1440 1438 1437 1435 1433 1431 1429 1427 1425 1423 1421 1419 1418 1416 1413 1411 1409 1407 1404 1402 1400 1397 1394 1391 1389 1386 1384 1382 1379 1377 1374 1371 1368 1366 1363 1360 1358 1355 1353 1350 1348 1346 1343 1341 1338 1336 1333 1331 1329 1327 1325 1323 1321 1319 1317 1315 1313 1311 1310 1308 1306 1305 1303 1302 1301 1299 1298 1296 1295 1294 1293 1292 1291 1290 1289 1288 1287 1286 1285 1284 1283 1282 1281 1280 1279
1439 1438 1436 1434 1432 1430 1428 1426 1425 1423 1421 1419 1417 1415 1413 1411 1408 1406 1404 1401 1399 1396 1394 1391 1388 1385 1383 1381 1378 1376 1373 1371 1368 1365 1363 1360 1358 1355 1353 1350 1348 1346 1343 1341 1338 1336 1333 1331 1329 1327 1325 1323 1320 1318 1316 1314 1312 1310 1308 1306 1304 1302 1301 1300 1298 1297 1295 1294 1292 1291 1290 1289 1288 1287 1287 1286 1285 1284 1283 1282 1281 1280 1279 1278 1277
1438 1436 1435 1433 1432 1430 1428 1426 1424 1422 1420 1418 1416 1414 1412 1410 1408 1405 1403 1400 1398 1395 1393 1390 1387 1385 1382 1380 1378 1375 1373 1370 1368 1365 1363 1360 1357 1355 1353 1350 1348 1345 1343 1341 1338 1336 1333 1331 1328 1326 1324 1322 1320 1318 1315 1313 1311 1309 1307 1304 1302 1300 1299 1297 1296 1294 1293 1291 1289 1288 1287 1286 1285 1285 1284 1283 1282 1281 1280 1279 1278 1277 1276 1275 1274
1437 1435 1434 1432 1430 1428 1427 1425 1423 1421 1419 1417 1415 1413 1411 1409 1407 1405 1402 1399 1397 1394 1392 1389 1387 1384 1382 1379 1377 1375 1372 1370 1367 1365 1362 1360 1357 1355 1352 1350 1348 1345 1343 1340 1338 1335 1333 1331 1328 1326 1323 1321 1319 1317 1315 1313 1311 1308 1306 1304 1301 1299 1297 1295 1293 1292 1290 1289 1287 1286 1284 1283 1283 1282 1281 1280 1280 1278 1277 1277 1276 1275 1274 1273 1272
1436 1434 1433 1431 1429 1427 1425 1424 1422 1420 1418 1416 1414 1412 1410 1408 1406 1404 1401 1399 1396 1394 1391 1389 1386 1384 1381 1379 1377 1374 1372 1370 1367 1365 1362 1360 1357 1355 1352 1350 1347 1345 1343 1340 1338 1335 1333 1331 1328 1326 1323 1321 1319 1317 1314 1312 1310 1308 1305 1303 1301 1298 1296 1294 1291 1290 1288 1286 1285 1283 1282 1281 1280 1279 1278 1278 1277 1276 1275 1274 1273 1272 1272 1270 1269
1435 1433 1431 1430 1428 1426 1424 1422 1420 1418 1416 1414 1413 1410 1408 1406 1404 1402 1400 1398 1395 1393 1390 1388 1386 1383 1381 1379 1376 1374 1372 1369 1367 1365 1362 1359 1357 1355 1352 1350 1347 1345 1342 1340 1338 1335 1333 1330 1328 1326 1323 1321 1318 1316 1314 1312 1309 1307 1304 1302 1300 1297 1295 1293 1290 1288 1286 1284 1282 1281 1280 1278 1277 1277 1276 1275 1274 1273 1272 1272 1271 1270 1269 1268 1267
1434 1432 1430 1428 1426 1424 1422 1420 1419 1417 1415 1413 1411 1409 1407 1405 1403 1401 1398 1396 1394 1392 1389 1387 1385 1383 1380 1378 1376 1374 1371 1369 1367 1364 1362 1359 1357 1354 1352 1350 1347 1344 1342 1340 1337 1335 1333 1330 1328 1325 1323 1320 1318 1315 1313 1311 1308 1306 1303 1301 1298 1296 1293 1291 1288 1286 1284 1282 1280 1279 1277 1276 1275 1274 1273 1273 1272 1271 1270 1269 1268 1267 1267 1265 1264
1432 1430 1429 1427 1425 1423 1421 1419 1417 1415 1413 1411 1409 1407 1405 1403 1401 1399 1397 1395 1393 1391 1388 1386 1384 1382 1380 1377 1375 1373 1371 1369 1366 1364 1361 1359 1357 1354 1352 1349 1347 1345 1342 1340 1337 1335 1332 1330 1327 1325 1323 1320 1318 1315 1312 1310 1307 1305 1302 1300 1297 1294 1292 1289 1287 1285 1282 1280 1278 1276 1275 1274 1273 1272 1271 1271 1270 1269 1268 1267 1266 1265 1264 1263 1262
1431 1429 1427 1425 1423 1421 1419 1418 1416 1414 1412 1410 1408 1406 1403 1401 1400 1398 1395 1393 1391 1389 1387 1385 1383 1381 1379 1377 1375 1372 1370 1368 1366 1363 1361 1359 1356 1354 1352 1349 1347 1344 1342 1340 1337 1335 1332 1330 1327 1325 1322 1320 1317 1314 1312 1310 1307 1304 1301 1299 1296 1293 1291 1288 1285 1283 1280 1278 1276 1275 1273 1272 1271 1270 1270 1269 1268 1267 1266 1265 1264 1263 1262 1261 1260